CW2597 Weather Reports


time (UTC)temp
C
wind
direction
speed
KPH
gust
KPH
rain 1hr
cm
rain 24hr
cm
rain mn
cm
humidity
%
barometer
mb
20191019042225 9 133 0.0 4.8 0.00 0.43 0.00 88 1004.8
20191019041726 9 132 1.6 4.8 0.00 0.43 0.00 89 1004.7
20191019041534 9 132 0.0 6.4 0.00 0.00 0.00 89 1005.9
20191019041225 9 128 0.0 4.8 0.00 0.43 0.00 89 1004.7
20191019040725 9 117 0.0 9.7 0.00 0.43 0.00 92 1004.7
20191019040534 9 133 0.0 4.8 0.00 0.00 0.00 88 1006.0
20191019040225 9 119 0.0 1.6 0.00 0.43 0.00 88 1004.8
20191019035725 9 299 0.0 1.6 0.00 0.43 0.00 88 1004.9
20191019035225 9 202 0.0 3.2 0.00 0.43 0.00 88 1004.8
20191019034726 9 207 1.6 9.7 0.00 0.43 0.00 89 1004.7
20191019034534 9 107 1.6 9.7 0.00 0.00 0.00 89 1005.9
20191019034225 9 196 0.0 4.8 0.00 0.43 0.00 89 1004.7
20191019033725 9 158 1.6 4.8 0.00 0.43 0.00 89 1004.7
20191019033534 9 111 1.6 4.8 0.00 0.00 0.00 89 1005.9
20191019033226 9 151 1.6 4.8 0.00 0.43 0.00 89 1004.7
20191019032725 9 217 0.0 4.8 0.00 0.43 0.00 89 1004.8
20191019032534 8 219 0.0 8.0 0.00 0.00 0.00 89 1005.9
20191019032226 8 175 1.6 8.0 0.00 0.43 0.00 89 1004.7
20191019031725 8 138 0.0 9.7 0.00 0.43 0.00 89 1004.8
20191019031534 8 132 1.6 9.7 0.00 0.00 0.00 89 1005.9
20191019031225 8 151 1.6 3.2 0.00 0.43 0.00 89 1004.7
20191019030725 8 144 0.0 8.0 0.00 0.43 0.00 89 1004.8
20191019030226 8 158 0.0 9.7 0.00 0.43 0.00 88 1004.8
20191019025726 8 254 0.0 8.0 0.00 0.43 0.00 88 1004.7
20191019025533 8 142 1.6 9.7 0.00 0.00 0.00 88 1005.9
20191019025225 8 106 1.6 3.2 0.00 0.43 0.00 88 1004.8
20191019024725 8 57 1.6 4.8 0.00 0.43 0.00 88 1004.7
20191019024225 8 159 1.6 9.7 0.00 0.43 0.00 88 1004.8
20191019023725 8 216 0.0 4.8 0.00 0.43 0.00 88 1004.7
20191019023533 8 126 1.6 8.0 0.00 0.00 0.00 88 1006.0
20191019023226 8 156 0.0 8.0 0.00 0.43 0.00 88 1004.8
20191019022726 8 51 0.0 4.8 0.00 0.43 0.00 88 1004.9
20191019022533 8 174 0.0 4.8 0.00 0.00 0.00 88 1006.1
20191019022225 8 170 0.0 1.6 0.00 0.43 0.00 88 1004.9
20191019021726 8 158 1.6 4.8 0.00 0.43 0.00 88 1005.0
20191019021225 8 306 0.0 8.0 0.00 0.43 0.00 88 1005.0
20191019020725 8 154 0.0 11.3 0.00 0.43 0.00 88 1005.0
20191019020533 8 175 1.6 11.3 0.00 0.00 0.00 88 1006.2
20191019020225 8 144 1.6 4.8 0.00 0.43 0.00 88 1005.0
20191019015725 8 156 1.6 4.8 0.00 0.43 0.00 88 1005.2
20191019015532 8 119 0.0 3.2 0.00 0.00 0.00 88 1006.3
20191019015225 8 119 0.0 3.2 0.00 0.43 0.00 88 1005.1
20191019014725 8 148 0.0 4.8 0.00 0.43 0.00 88 1005.1
20191019014533 8 148 1.6 6.4 0.00 0.00 0.00 88 1006.2
20191019014225 8 169 0.0 3.2 0.00 0.43 0.00 87 1005.1
20191019013725 8 158 0.0 4.8 0.00 0.43 0.00 87 1005.1
20191019013225 8 163 1.6 3.2 0.00 0.43 0.00 87 1005.1
20191019012726 8 139 0.0 0.0 0.00 0.43 0.00 87 1005.1
20191019012532 8 139 0.0 3.2 0.00 0.00 0.00 87 1006.3
20191019012226 8 139 1.6 4.8 0.00 0.43 0.00 87 1005.1
20191019011726 8 161 0.0 3.2 0.00 0.43 0.00 87 1005.1
20191019011532 8 161 0.0 3.2 0.00 0.00 0.00 87 1006.3
20191019011226 8 161 0.0 1.6 0.00 0.43 0.00 87 1005.1
20191019010725 9 161 0.0 1.6 0.00 0.43 0.00 87 1005.2
20191019010532 9 151 0.0 6.4 0.00 0.00 0.00 86 1006.5
20191019010226 9 151 0.0 4.8 0.00 0.43 0.00 86 1005.3
20191019005725 9 131 0.0 1.6 0.00 0.43 0.00 86 1005.3
20191019005532 9 211 0.0 0.0 0.00 0.00 0.00 86 1006.5
20191019005225 9 211 0.0 0.0 0.00 0.43 0.00 86 1005.3
20191019004725 9 211 0.0 4.8 0.00 0.43 0.00 86 1005.4
20191019004225 9 80 1.6 3.2 0.00 0.43 0.00 86 1005.4
20191019003725 9 149 0.0 1.6 0.00 0.43 0.00 86 1005.4
20191019003531 9 136 0.0 8.0 0.00 0.00 0.00 86 1006.7
20191019003225 9 136 1.6 8.0 0.00 0.43 0.00 86 1005.4
20191019002726 9 180 0.0 1.6 0.00 0.43 0.00 86 1005.4
20191019002225 9 180 0.0 8.0 0.00 0.43 0.00 86 1005.4
20191019001725 9 227 1.6 8.0 0.00 0.43 0.00 86 1005.4
20191019001531 9 231 1.6 9.7 0.00 0.00 0.00 86 1006.6
20191019001226 9 177 0.0 4.8 0.00 0.43 0.00 86 1005.4
20191019000725 9 146 0.0 8.0 0.00 0.43 0.00 86 1005.4
20191019000226 9 214 1.6 11.3 0.00 0.43 0.00 86 1005.5
20191018235725 9 136 1.6 4.8 0.00 0.43 0.00 86 1005.5
20191018235531 9 171 0.0 3.2 0.00 0.00 0.00 86 1006.7
20191018235225 9 159 1.6 4.8 0.00 0.43 0.00 86 1005.5
20191018234726 9 123 0.0 4.8 0.00 0.43 0.00 85 1005.6
20191018234531 9 122 1.6 4.8 0.00 0.00 0.00 85 1006.7
20191018234225 9 183 0.0 3.2 0.00 0.43 0.00 85 1005.6
20191018233725 9 211 1.6 4.8 0.00 0.43 0.00 85 1005.6
20191018233225 9 250 0.0 3.2 0.00 0.43 0.00 85 1005.6
20191018232726 10 250 0.0 4.8 0.00 0.43 0.00 85 1005.6
20191018232536 10 250 1.6 6.4 0.00 0.00 0.00 85 1006.8
20191018232225 10 170 1.6 9.7 0.00 0.43 0.00 85 1005.6
20191018231726 10 158 0.0 4.8 0.00 0.43 0.00 85 1005.6
20191018231536 10 158 1.6 4.8 0.00 0.00 0.00 85 1006.8
20191018231225 10 212 1.6 4.8 0.00 0.43 0.00 85 1005.7
20191018230725 10 183 1.6 12.9 0.00 0.43 0.00 85 1005.7
20191018230535 10 173 1.6 9.7 0.00 0.00 0.00 85 1006.9
20191018230225 10 180 0.0 8.0 0.00 0.43 0.00 85 1005.7
20191018225725 10 132 1.6 12.9 0.00 0.43 0.00 84 1005.7
20191018225535 10 211 3.2 12.9 0.00 0.00 0.00 84 1006.9
20191018225225 10 171 0.0 4.8 0.00 0.43 0.00 84 1005.7
20191018224726 10 162 1.6 8.0 0.00 0.46 0.00 84 1005.7
20191018224225 10 240 1.6 8.0 0.00 0.46 0.00 84 1005.7
20191018223725 10 183 1.6 4.8 0.00 0.48 0.00 84 1005.8
20191018223225 10 194 3.2 9.7 0.00 0.48 0.00 84 1005.7
20191018222726 10 203 3.2 8.0 0.00 0.48 0.00 84 1005.6
20191018222225 10 159 1.6 11.3 0.00 0.48 0.00 84 1005.7
20191018221725 10 210 1.6 4.8 0.00 0.48 0.00 84 1005.7
20191018221535 10 205 3.2 9.7 0.00 0.00 0.00 84 1006.9
20191018221225 10 211 1.6 9.7 0.00 0.48 0.00 84 1005.7
20191018220725 10 186 1.6 9.7 0.00 0.48 0.00 84 1005.7
20191018220226 10 74 3.2 9.7 0.00 0.48 0.00 84 1005.6
20191018215725 10 119 3.2 4.8 0.00 0.48 0.48 84 1005.7
20191018215535 10 175 1.6 12.9 0.00 0.48 0.48 83 1006.8
20191018215226 10 177 1.6 9.7 0.00 0.48 0.48 83 1005.6
20191018214725 10 177 3.2 11.3 0.00 0.48 0.48 83 1005.6
20191018214225 10 162 1.6 11.3 0.00 0.48 0.48 83 1005.5
20191018213726 10 183 0.0 3.2 0.00 0.48 0.48 83 1005.5
20191018213226 10 177 1.6 3.2 0.00 0.48 0.48 83 1005.5
20191018212725 11 197 3.2 14.5 0.00 0.48 0.48 83 1005.6
20191018212226 11 185 3.2 12.9 0.00 0.48 0.48 83 1005.6
20191018211726 11 206 3.2 14.5 0.00 0.48 0.48 82 1005.6
20191018211534 11 227 1.6 11.3 0.00 0.48 0.48 82 1006.7
20191018211225 11 189 1.6 16.1 0.00 0.48 0.48 82 1005.5
20191018210726 11 133 3.2 14.5 0.00 0.48 0.48 82 1005.5
20191018210226 11 211 1.6 16.1 0.00 0.48 0.48 82 1005.5
20191018205725 11 195 3.2 8.0 0.00 0.48 0.48 82 1005.6
20191018205534 11 141 3.2 17.7 0.00 0.48 0.48 82 1006.8
20191018205225 11 182 4.8 19.3 0.00 0.48 0.48 83 1005.5
20191018204726 11 220 4.8 14.5 0.00 0.48 0.48 83 1005.5
20191018204225 11 197 4.8 14.5 0.00 0.48 0.48 83 1005.5
20191018203725 11 159 4.8 12.9 0.00 0.48 0.48 83 1005.3
20191018203534 11 206 6.4 17.7 0.00 0.48 0.48 83 1006.6
20191018203226 11 190 6.4 16.1 0.00 0.51 0.48 83 1005.4
20191018202727 11 202 4.8 12.9 0.00 0.51 0.48 83 1005.4
20191018202225 11 182 6.4 14.5 0.00 0.51 0.48 83 1005.4
20191018201726 11 202 6.4 19.3 0.00 0.51 0.48 83 1005.3
20191018201533 11 210 4.8 22.5 0.00 0.48 0.48 83 1006.5
20191018201226 11 207 8.0 22.5 0.00 0.51 0.48 83 1005.3
20191018200726 11 165 3.2 14.5 0.00 0.51 0.48 83 1005.3
20191018200533 11 163 4.8 17.7 0.00 0.48 0.48 83 1006.6
20191018200226 11 215 4.8 19.3 0.00 0.51 0.48 83 1005.3
20191018195725 11 208 8.0 14.5 0.00 0.51 0.48 83 1005.4
20191018195226 11 183 4.8 16.1 0.00 0.51 0.48 83 1005.4
20191018194726 11 184 3.2 16.1 0.00 0.51 0.48 83 1005.3
20191018194533 11 194 4.8 20.9 0.00 0.48 0.48 83 1006.5
20191018194226 11 158 4.8 14.5 0.00 0.51 0.48 83 1005.2
20191018193725 11 187 3.2 20.9 0.00 0.51 0.48 83 1005.2
20191018193533 11 185 4.8 20.9 0.00 0.48 0.48 83 1006.5
20191018193225 11 213 3.2 20.9 0.00 0.51 0.48 83 1005.2
20191018192725 11 213 3.2 9.7 0.00 0.51 0.48 83 1005.1
20191018192533 11 196 1.6 4.8 0.00 0.48 0.48 83 1006.4
20191018192225 11 162 1.6 8.0 0.00 0.51 0.48 82 1005.1
20191018191726 11 207 3.2 14.5 0.00 0.51 0.48 82 1005.1
20191018191225 11 192 4.8 16.1 0.00 0.51 0.48 82 1005.0
20191018190726 11 213 4.8 14.5 0.00 0.56 0.48 82 1005.0
20191018190225 11 206 3.2 14.5 0.00 0.56 0.48 82 1004.9
20191018185726 11 191 4.8 19.3 0.00 0.56 0.48 82 1004.9
20191018185532 11 172 3.2 16.1 0.00 0.48 0.48 82 1006.2
20191018185226 11 168 8.0 19.3 0.00 0.56 0.48 82 1004.9
20191018184726 11 192 9.7 20.9 0.00 0.56 0.48 82 1004.9
20191018184532 11 185 4.8 16.1 0.00 0.48 0.48 82 1006.2
20191018184226 11 206 4.8 16.1 0.00 0.56 0.48 82 1004.9
20191018183726 11 168 4.8 19.3 0.00 0.56 0.48 82 1005.0
20191018183225 11 204 8.0 20.9 0.00 0.56 0.48 83 1005.0
20191018182726 11 169 6.4 16.1 0.00 0.56 0.48 83 1005.0
20191018182532 11 200 9.7 19.3 0.00 0.48 0.48 83 1006.3
20191018182225 11 203 9.7 19.3 0.00 0.56 0.48 83 1005.0
20191018181725 11 189 8.0 14.5 0.00 0.56 0.48 83 1005.1
20191018181532 11 170 6.4 17.7 0.00 0.48 0.48 83 1006.3
20191018181226 11 197 8.0 16.1 0.00 0.56 0.48 83 1005.0
20191018180726 11 160 6.4 22.5 0.00 0.56 0.48 83 1005.0
20191018180532 11 178 9.7 24.1 0.00 0.48 0.48 83 1006.2
20191018180226 11 207 8.0 24.1 0.00 0.56 0.48 83 1004.9
20191018175725 11 208 9.7 27.4 0.00 0.56 0.48 83 1004.9
20191018175531 11 181 4.8 12.9 0.00 0.48 0.48 83 1006.0
20191018175226 11 182 4.8 12.9 0.00 0.56 0.48 83 1004.8
20191018174725 11 204 4.8 20.9 0.00 0.56 0.48 83 1004.8
20191018174226 11 179 3.2 22.5 0.00 0.56 0.48 83 1004.8
20191018173725 11 194 4.8 11.3 0.00 0.56 0.48 83 1004.7
20191018173532 11 194 4.8 16.1 0.00 0.48 0.48 83 1006.0
20191018173225 11 205 4.8 12.9 0.00 0.56 0.48 83 1004.7
20191018172725 11 183 8.0 16.1 0.00 0.56 0.48 83 1004.7
20191018172226 11 196 3.2 16.1 0.00 0.56 0.48 82 1004.6
20191018171726 11 200 6.4 12.9 0.00 0.56 0.48 82 1004.6
20191018171536 11 242 6.4 12.9 0.00 0.48 0.48 82 1005.8
20191018171226 11 184 4.8 19.3 0.00 0.56 0.48 82 1004.5
20191018170726 11 168 3.2 12.9 0.00 0.56 0.48 82 1004.5
20191018170536 11 209 1.6 17.7 0.00 0.48 0.48 82 1005.6
20191018170226 11 184 3.2 19.3 0.00 0.56 0.48 82 1004.4
20191018165725 11 175 3.2 11.3 0.00 0.56 0.48 81 1004.4
20191018165535 11 208 4.8 17.7 0.00 0.48 0.48 81 1005.6
20191018165226 12 197 4.8 19.3 0.00 0.56 0.48 81 1004.3
20191018164726 12 151 6.4 14.5 0.00 0.56 0.48 81 1004.3
20191018164535 12 210 4.8 14.5 0.00 0.48 0.48 80 1005.5
20191018164226 12 192 4.8 20.9 0.00 0.56 0.48 80 1004.3
20191018163726 12 200 8.0 19.3 0.00 0.56 0.48 80 1004.2
20191018163535 12 236 4.8 16.1 0.00 0.48 0.48 80 1005.4
20191018163226 12 223 6.4 16.1 0.00 0.56 0.48 80 1004.2
20191018162725 12 185 4.8 16.1 0.00 0.56 0.48 79 1004.1
20191018162226 12 203 11.3 19.3 0.00 0.56 0.48 79 1004.0
20191018161726 12 198 4.8 19.3 0.00 0.56 0.48 79 1003.9
20191018161535 12 226 8.0 24.1 0.00 0.48 0.48 79 1005.1
20191018161225 12 192 9.7 24.1 0.00 0.56 0.48 79 1003.9
20191018160726 12 208 8.0 27.4 0.00 0.56 0.48 79 1003.7
20191018160535 12 237 8.0 20.9 0.00 0.48 0.48 79 1004.8
20191018160226 12 202 8.0 19.3 0.00 0.56 0.48 79 1003.6
20191018155726 12 221 9.7 22.5 0.00 0.56 0.48 79 1003.5
20191018155226 13 207 9.7 25.7 0.00 0.56 0.48 79 1003.5
20191018154725 13 223 9.7 24.1 0.00 0.56 0.48 79 1003.5
20191018154226 13 218 14.5 25.7 0.00 0.56 0.48 79 1003.4
20191018153726 13 225 9.7 22.5 0.00 0.56 0.48 80 1003.4
20191018153535 13 211 9.7 19.3 0.00 0.48 0.48 80 1004.4
20191018153226 13 209 6.4 19.3 0.00 0.56 0.48 80 1003.2
20191018152726 13 208 9.7 20.9 0.00 0.56 0.48 80 1003.2
20191018152534 13 221 9.7 20.9 0.00 0.48 0.48 80 1004.3
20191018152226 13 197 8.0 19.3 0.00 0.56 0.48 80 1003.1
20191018151726 13 221 9.7 25.7 0.00 0.56 0.48 80 1003.0
20191018151534 13 111 9.7 20.9 0.00 0.48 0.48 80 1004.2
20191018151225 13 203 4.8 22.5 0.00 0.56 0.48 80 1003.0
20191018150726 13 195 9.7 27.4 0.03 0.56 0.48 80 1002.9
20191018150226 13 214 9.7 33.8 0.03 0.56 0.48 80 1003.0
20191018145726 13 214 9.7 22.5 0.03 0.56 0.48 80 1002.9
20191018145534 13 218 11.3 27.4 0.03 0.48 0.48 80 1004.1
20191018145225 13 214 9.7 27.4 0.03 0.56 0.48 80 1002.9
20191018144726 13 212 9.7 25.7 0.03 0.56 0.48 80 1002.7
20191018144226 13 193 9.7 27.4 0.03 0.56 0.48 80 1002.6
20191018143725 13 209 16.1 33.8 0.03 0.56 0.48 80 1002.7
20191018143534 13 239 12.9 25.7 0.03 0.48 0.48 80 1003.9
20191018143226 13 211 12.9 25.7 0.03 0.56 0.48 81 1002.7
20191018142726 13 203 9.7 27.4 0.03 0.56 0.48 81 1002.5
20191018142533 13 177 12.9 27.4 0.03 0.48 0.48 81 1003.7
20191018142226 13 212 9.7 32.2 0.03 0.56 0.48 81 1002.4
20191018141726 13 221 8.0 25.7 0.03 0.56 0.48 82 1002.3
20191018141225 13 205 11.3 33.8 0.03 0.56 0.48 82 1002.4
20191018140726 13 198 11.3 22.5 0.00 0.53 0.46 83 1002.4
20191018140226 12 186 14.5 27.4 0.00 0.53 0.46 84 1002.3
20191018135726 12 209 8.0 22.5 0.00 0.53 0.46 85 1002.3
20191018135226 12 189 9.7 20.9 0.00 0.53 0.46 85 1002.3
20191018134725 12 202 11.3 27.4 0.00 0.53 0.46 85 1002.6
20191018134226 12 196 16.1 33.8 0.00 0.53 0.46 86 1002.6
20191018133726 12 203 19.3 35.4 0.00 0.53 0.46 86 1002.4
20191018133533 12 217 12.9 30.6 0.00 0.46 0.46 86 1003.5
20191018133226 12 200 14.5 32.2 0.00 0.53 0.46 86 1001.9
20191018132726 12 209 11.3 25.7 0.00 0.53 0.46 87 1002.1
20191018132226 12 207 17.7 41.8 0.00 0.53 0.46 87 1002.5
20191018131726 12 213 9.7 20.9 0.00 0.53 0.46 87 1002.0
20191018131226 12 189 12.9 27.4 0.00 0.53 0.46 87 1001.4
20191018130725 12 205 6.4 20.9 0.00 0.53 0.46 87 1001.0
20191018130533 12 225 8.0 30.6 0.00 0.46 0.46 87 1002.6
20191018130226 12 216 9.7 32.2 0.00 0.53 0.46 87 1001.3
20191018125726 12 217 11.3 32.2 0.38 0.53 0.46 88 1001.7
20191018125532 12 234 16.1 35.4 0.41 0.46 0.46 88 1003.0
20191018125226 12 213 9.7 35.4 0.41 0.53 0.46 88 1002.0
20191018124726 12 211 11.3 27.4 0.41 0.53 0.46 88 1001.7
20191018124533 13 223 9.7 27.4 0.41 0.46 0.46 88 1003.0
20191018124226 13 198 9.7 29.0 0.41 0.53 0.46 88 1001.8
20191018123726 12 211 12.9 29.0 0.41 0.53 0.46 87 1001.7
20191018123226 12 207 8.0 19.3 0.41 0.53 0.46 87 1001.5
20191018122726 12 221 11.3 29.0 0.41 0.53 0.46 87 1001.2
20191018122532 12 179 9.7 25.7 0.41 0.46 0.46 86 1002.4
20191018122226 12 203 8.0 25.7 0.41 0.53 0.46 86 1001.1
20191018121726 13 204 9.7 32.2 0.41 0.53 0.46 85 1001.0
20191018121226 13 199 9.7 22.5 0.41 0.53 0.46 84 1001.3
20191018120726 13 211 8.0 20.9 0.41 0.53 0.46 82 1001.5
20191018120226 14 184 14.5 70.8 0.41 0.53 0.46 78 1001.3
20191018115726 16 222 8.0 48.3 0.03 0.15 0.08 79 1001.7
20191018115226 17 272 4.8 16.1 0.00 0.15 0.05 78 999.9
20191018114726 17 348 3.2 12.9 0.00 0.15 0.05 78 1000.0
20191018114226 17 150 4.8 19.3 0.00 0.15 0.05 78 1000.1
20191018113726 17 100 4.8 16.1 0.00 0.15 0.05 79 1000.4
20191018113226 17 166 3.2 8.0 0.00 0.15 0.05 79 1000.6
20191018112726 17 149 4.8 19.3 0.00 0.15 0.05 79 1000.7
20191018112225 17 177 4.8 19.3 0.00 0.15 0.05 80 1000.8
20191018111726 17 98 3.2 12.9 0.00 0.15 0.05 79 1000.9
20191018111535 17 141 3.2 12.9 0.00 0.05 0.05 80 1002.2
20191018111226 17 98 3.2 9.7 0.00 0.15 0.05 80 1001.0
20191018110726 17 121 1.6 9.7 0.00 0.15 0.05 80 1001.1
20191018110226 17 90 3.2 11.3 0.00 0.15 0.05 81 1001.2
20191018105726 17 175 4.8 16.1 0.00 0.15 0.05 81 1001.3
20191018105226 17 145 3.2 14.5 0.00 0.15 0.05 80 1001.4
20191018104725 17 185 1.6 12.9 0.00 0.15 0.05 81 1001.7
20191018104535 17 239 4.8 16.1 0.00 0.05 0.05 81 1002.9
20191018104226 17 146 4.8 16.1 0.00 0.15 0.05 80 1001.7
20191018103725 17 142 4.8 19.3 0.00 0.15 0.05 80 1001.9
20191018103534 17 335 3.2 11.3 0.00 0.05 0.05 81 1003.2
20191018103229 17 182 4.8 11.3 0.00 0.15 0.05 80 1002.0
20191018102727 17 105 3.2 9.7 0.00 0.15 0.05 81 1002.2
20191018102534 17 79 1.6 14.5 0.00 0.05 0.05 82 1003.5
20191018102226 17 286 3.2 22.5 0.00 0.15 0.05 83 1002.3
20191018101726 17 162 1.6 25.7 0.00 0.15 0.05 84 1002.4
20191018101534 16 208 1.6 16.1 0.00 0.05 0.05 84 1003.7
20191018101226 16 118 1.6 8.0 0.00 0.15 0.05 84 1002.5
20191018100726 16 135 3.2 9.7 0.00 0.15 0.05 85 1002.6
20191018100226 16 96 4.8 14.5 0.00 0.15 0.05 85 1002.6
20191018095726 16 117 1.6 11.3 0.00 0.15 0.05 86 1002.8
20191018095534 16 7 3.2 12.9 0.00 0.05 0.05 87 1004.1
20191018095226 16 134 1.6 8.0 0.00 0.15 0.05 87 1002.9
20191018094726 15 183 1.6 4.8 0.00 0.15 0.05 88 1003.1
20191018094226 15 227 1.6 9.7 0.00 0.15 0.05 89 1003.1
20191018093726 15 277 1.6 8.0 0.00 0.15 0.05 91 1003.2
20191018093225 14 156 1.6 9.7 0.00 0.15 0.05 91 1003.2
20191018092726 14 177 3.2 11.3 0.00 0.15 0.05 92 1003.3
20191018092226 13 117 0.0 8.0 0.00 0.15 0.05 92 1003.4
20191018091726 13 86 0.0 3.2 0.00 0.15 0.05 92 1003.4
20191018091226 13 202 1.6 4.8 0.00 0.15 0.05 92 1003.5
20191018090726 13 81 1.6 4.8 0.00 0.15 0.05 93 1003.6
20191018090533 13 165 0.0 3.2 0.00 0.05 0.05 93 1004.9
20191018090226 13 165 0.0 8.0 0.00 0.15 0.05 93 1003.7
20191018085726 13 160 1.6 8.0 0.00 0.15 0.05 93 1003.8
20191018085533 13 108 1.6 8.0 0.00 0.05 0.05 93 1005.1
20191018085226 13 104 3.2 8.0 0.00 0.15 0.05 93 1003.9
20191018084726 13 158 0.0 3.2 0.00 0.15 0.05 93 1003.9
20191018084533 13 173 0.0 8.0 0.00 0.05 0.05 93 1005.1
20191018084226 13 161 1.6 8.0 0.00 0.15 0.05 93 1004.0
20191018083726 13 158 1.6 4.8 0.00 0.15 0.05 93 1003.9
20191018083533 13 146 0.0 6.4 0.00 0.05 0.05 93 1005.1
20191018083226 13 144 0.0 4.8 0.00 0.15 0.05 93 1004.0
20191018082726 13 192 0.0 4.8 0.00 0.15 0.05 93 1004.1
20191018082532 13 118 0.0 6.4 0.00 0.05 0.05 93 1005.3
20191018082227 13 89 1.6 4.8 0.00 0.15 0.05 93 1004.2
20191018081727 13 118 3.2 9.7 0.00 0.15 0.05 93 1004.2
20191018081533 13 324 1.6 9.7 0.00 0.05 0.05 93 1005.4
20191018081226 12 179 4.8 4.8 0.00 0.15 0.05 93 1004.3
20191018080726 12 106 0.0 4.8 0.00 0.15 0.05 93 1004.2
20191018080532 12 127 0.0 6.4 0.00 0.05 0.05 93 1005.5
20191018080226 12 127 0.0 4.8 0.00 0.18 0.05 93 1004.3
20191018075726 12 159 1.6 4.8 0.00 0.18 0.05 93 1004.3
20191018075532 12 185 0.0 6.4 0.00 0.05 0.05 93 1005.5
20191018075226 12 163 1.6 4.8 0.00 0.18 0.05 93 1004.2
20191018074726 12 118 1.6 4.8 0.00 0.18 0.05 93 1004.3
20191018074226 12 166 0.0 3.2 0.00 0.18 0.05 93 1004.3
20191018073726 12 140 1.6 4.8 0.00 0.18 0.05 93 1004.3
20191018073226 12 117 1.6 4.8 0.00 0.18 0.05 93 1004.3
20191018072726 12 148 0.0 8.0 0.00 0.18 0.05 93 1004.4
20191018072226 12 134 0.0 8.0 0.00 0.18 0.05 93 1004.3
20191018071726 12 129 0.0 4.8 0.00 0.18 0.05 94 1004.4
20191018071226 12 128 1.6 4.8 0.00 0.18 0.05 94 1004.4
20191018070726 12 165 0.0 11.3 0.00 0.18 0.05 94 1004.5
20191018070533 12 165 3.2 16.1 0.00 0.05 0.05 94 1005.8
20191018070226 12 95 1.6 16.1 0.00 0.18 0.05 94 1004.6
20191018065726 12 148 1.6 8.0 0.00 0.18 0.05 94 1004.6
20191018065533 12 192 1.6 8.0 0.00 0.05 0.05 93 1005.7
20191018065226 12 114 0.0 8.0 0.00 0.18 0.05 93 1004.6
20191018064726 12 171 3.2 11.3 0.00 0.18 0.05 94 1004.6
20191018064533 12 149 1.6 9.7 0.00 0.05 0.05 94 1005.8
20191018064226 12 151 1.6 4.8 0.00 0.18 0.05 94 1004.6
20191018063726 12 119 0.0 8.0 0.00 0.18 0.05 94 1004.6
20191018063227 12 142 1.6 4.8 0.00 0.18 0.05 94 1004.7
20191018062726 12 158 1.6 4.8 0.00 0.18 0.05 94 1004.7
20191018062532 12 67 1.6 6.4 0.00 0.05 0.05 94 1005.9
20191018062226 12 138 0.0 1.6 0.00 0.18 0.05 94 1004.7
20191018061726 12 180 0.0 0.0 0.00 0.18 0.05 94 1004.7
20191018061533 12 161 0.0 11.3 0.00 0.05 0.05 94 1005.9
20191018061226 12 170 1.6 4.8 0.00 0.18 0.05 94 1004.8
20191018060726 12 120 1.6 3.2 0.00 0.18 0.05 94 1004.7
20191018060532 12 117 0.0 6.4 0.00 0.05 0.05 94 1006.0
20191018060227 12 118 1.6 4.8 0.00 0.18 0.05 94 1004.7
20191018055726 12 144 0.0 9.7 0.00 0.18 0.05 94 1004.8
20191018055532 12 77 1.6 11.3 0.00 0.05 0.05 94 1006.0
20191018055226 12 126 3.2 11.3 0.00 0.18 0.05 94 1004.8
20191018054726 12 180 1.6 12.9 0.00 0.20 0.05 94 1004.8
20191018054532 12 170 1.6 8.0 0.00 0.05 0.05 94 1006.0
20191018054226 12 171 1.6 8.0 0.00 0.20 0.05 94 1004.8
20191018053726 12 152 1.6 4.8 0.00 0.20 0.05 94 1004.9
20191018053536 12 187 1.6 8.0 0.00 0.05 0.05 94 1006.1
20191018053226 12 183 1.6 4.8 0.00 0.20 0.05 94 1004.9
20191018052726 12 271 3.2 4.8 0.00 0.20 0.05 94 1005.0
20191018052536 12 152 1.6 6.4 0.00 0.05 0.05 94 1006.2
20191018052226 12 145 1.6 4.8 0.00 0.20 0.05 94 1005.0
20191018051726 12 79 0.0 3.2 0.00 0.20 0.05 94 1005.0
20191018051536 12 154 0.0 0.0 0.00 0.05 0.05 94 1006.2
20191018051226 12 154 0.0 0.0 0.00 0.20 0.05 94 1005.2
20191018050727 12 154 0.0 0.0 0.00 0.20 0.05 94 1005.1
20191018050536 12 152 0.0 1.6 0.00 0.05 0.05 94 1006.3
20191018050226 12 106 0.0 1.6 0.00 0.20 0.05 94 1005.1
20191018045726 12 0 0.0 0.0 0.00 0.20 0.05 93 1005.2
20191018045226 12 0 0.0 0.0 0.00 0.20 0.05 93 1005.3
20191018044727 12 0 0.0 0.0 0.00 0.20 0.05 93 1005.4
20191018044536 12 185 1.6 8.0 0.00 0.05 0.05 94 1006.6
20191018044226 12 0 0.0 0.0 0.00 0.20 0.05 93 1005.5
20191018043726 12 0 0.0 0.0 0.00 0.20 0.05 93 1005.5
20191018043227 12 0 0.0 0.0 0.00 0.20 0.05 93 1005.6
20191018042726 12 0 0.0 0.0 0.00 0.20 0.05 93 1005.7